User: anonymous   Login
Location: *
(51.1248°S, 108.4023°W)
Time: 15:52:43
(UTC+00:00)
Language:

Cosmos 1939 Rocket - Orbit

View from above orbital plane
View from above orbital plane
View from above satellite
View from above satellite

Ground track
Ground track

The orbit data is extracted from the following two-line orbital elements,

1 19046U 88032B   21269.20251878  .00000250  00000-0  22582-4 0  9994
2 19046  97.3902 275.1163 0039322  61.5652 298.9528 15.03021945807201
Epoch (UTC): 26 September 2021 04:51:37
Eccentricity: 0.0039322
inclination: 97.3902°
perigee height: 530 km
apogee height: 585 km
right ascension of ascending node: 275.1163°
argument of perigee: 61.5652°
revolutions per day: 15.03021945
mean anomaly at epoch: 298.9528°
orbit number at epoch: 80720

The dashed part of the orbit path shows where the satellite is in the earth's shadow,  

DLR